Regional Weather Roundup
Issued by NWS Sioux Falls, SD

Home | Current Version | Previous Version | Graphics & Text | Print | Product List | Glossary Off
Versions: 1 2 3 4 5 6 7 8 9 10 11 12 13 14 15 16 17 18 19 20 21 22 23 24 25 26 27 28 29 30 31 32 33 34 35 36 37 38 39 40 41 42 43 44 45 46 47 48 49 50

000
ASUS43 KFSD 272210
RWRFSD

WEATHER ROUNDUP FOR SE SOUTH DAKOTA/SW MINNESOTA/NW IOWA
NATIONAL WEATHER SERVICE SIOUX FALLS SD
500 PM CDT SAT MAY 27 2017

NOTE: "FAIR" INDICATES FEW OR NO CLOUDS BELOW 12,000 FEET WITH NO
SIGNIFICANT WEATHER AND OR OBSTRUCTIONS TO VISIBILITY.


SDZ038>040-050-052>070-272300-
SOUTHEAST SOUTH DAKOTA

CITY           SKY/WX    TMP DP  RH WIND       PRES   REMARKS
BROOKINGS      PTSUNNY   67  47  48 W14       29.90S
CHAMBERLAIN    SUNNY     73  50  44 SW12      29.92F
HURON          MOSUNNY   72  45  37 SW12G18   29.88F
MADISON        FAIR      64  46  52 W8        29.91F
MITCHELL       CLOUDY    68  47  46 W9        29.91F
SIOUX FALLS    CLOUDY    67  52  58 NW12      29.91F
WINNER         MOCLDY    69  48  47 N8        29.94F
YANKTON        CLOUDY    64  53  67 NW10      29.94F
$$

MNZ071-072-080-081-089-090-097-098-272300-
SOUTHWEST MINNESOTA

CITY           SKY/WX    TMP DP  RH WIND       PRES   REMARKS
FAIRMONT       CLOUDY    68  49  50 NW7       29.89F
JACKSON        MOSUNNY   68  45  42 SW6       29.90F
LUVERNE        PTSUNNY   64  46  52 W10       29.91F
MARSHALL       CLOUDY    70  41  34 W13       29.87F
MONTEVIDEO     CLOUDY    72  43  35 W3        29.86S
PIPESTONE      CLOUDY    66  46  48 W6        29.90F
REDWOOD FALLS  MOSUNNY   73  39  29 W7        29.86F
TRACY          PTSUNNY   71  42  34 W6        29.88F
WINDOM         MOSUNNY   72  46  40 W7        29.89F
WORTHINGTON    PTSUNNY   68  47  46 W8        29.90F
$$

IAZ001>003-012>014-020>022-031-032-NEZ013-014-SDZ071-272300-
NORTHWEST IOWA

CITY           SKY/WX    TMP DP  RH WIND       PRES   REMARKS
CHEROKEE       SUNNY     70  52  53 N8        29.89R
DENISON        SUNNY     72  50  46 E12G18    29.90R
ESTHERVILLE    MOSUNNY   68  50  52 N9        29.89F
LE MARS        MOSUNNY   70  52  52 NW8G18    29.92R
ORANGE CITY    PTSUNNY   66  54  63 NW8       29.92R
SHELDON        MOSUNNY   68  50  52 NW7       29.89S
SIOUX CITY     MOSUNNY   74  52  46 N10       29.90R
SPENCER        SUNNY     71  50  47 N9        29.89F
STORM LAKE     SUNNY     73  43  33 N13       29.89R
$$

ABBREVIATIONS USED IN REMARKS
   TC - TEMPERATURE IN CELSIUS
  WCI - WIND CHILL INDEX
   HX - HEAT INDEX
  VSB - VISIBILITY





USA.gov is the U.S. government's official web portal to all federal, state and local government web resources and services.